[[{"header":{"parameterUnit":"m.s-1","parameterCategory":1,"la1":30.2991,"la2":30.254,"lo1":-89.0895,"lo2":-89.0444,"dy":0.0017,"dx":0.0017,"nx":28,"ny":28,"refTime":"2024-02-04T03:00:00:Z","depth":0,"parameterNumber":2,"parameterNumberName":"U-component_of_WINDS"},"data":[0,0,0,0,0,0,0,0,0,0,0,0,0,0,0,0,0,0,0,0,0,0,0,0,0,0,0,0,0,0,0,0,0,0,0,0,0,0,0,0,0,0,0,0,0,0,0,0,0,0,0,0,0,0,0,0,0,0,5.8463,5.8465,0,5.8643,5.8646,5.8648,5.8616,5.8613,5.861,5.8607,5.8798,5.8806,5.8813,0,0,0,0,0,0,0,0,0,0,0,0,0,5.81,5.8107,5.8463,5.8465,5.8467,5.8643,5.8646,5.8648,5.8617,5.8613,5.8609,5.8606,5.8795,5.8805,5.8814,0,0,0,0,0,0,0,0,0,0,0,0,0,5.8267,5.8109,5.8463,5.8473,5.8476,5.8643,5.8646,5.8649,5.8618,5.8613,5.8608,5.8604,5.8792,5.8804,5.8816,5.8985,0,0,5.8852,5.8858,0,0,0,0,0,0,0,0,5.8257,5.828,5.8469,5.8473,5.8476,5.8602,5.8588,5.8762,5.8619,5.8564,5.8607,5.8601,5.8737,5.8753,5.8798,5.8994,5.9002,5.8853,5.8861,5.8866,5.8869,0,0,0,0,0,0,0,5.8246,5.8272,5.8535,5.8472,5.8476,5.8471,5.849,5.862,5.8675,5.8568,5.8567,5.8588,5.8738,5.8786,5.8802,5.9005,5.8853,5.8864,5.8871,5.8876,5.9357,5.9362,0,0,0,0,0,0,5.823,5.8263,5.8529,5.854,5.8352,5.8482,5.8502,5.8567,5.8674,5.8685,5.8592,5.8586,5.8768,5.8788,5.8809,5.9019,5.8866,5.8877,5.8884,5.9351,5.9358,5.9364,0,0,0,0,0,0,5.8222,5.8254,5.8522,5.8401,5.8435,5.8493,5.8566,5.8573,5.8621,5.8691,5.8702,5.8631,5.8765,5.8792,5.8943,5.9025,5.8883,5.8894,5.9345,5.9353,5.9361,5.9438,0,0,0,0,0,0,5.8212,5.8251,5.8314,5.8403,5.8441,5.865,5.857,5.858,5.8641,5.8635,5.873,5.8742,5.8763,5.8925,5.8955,5.9039,5.8903,5.9338,5.9348,5.9358,5.9428,5.9447,5.9464,0,0,0,0,0,5.8199,5.8329,5.8318,5.835,5.8521,5.8655,5.8677,5.8698,5.8648,5.8713,5.8759,5.8739,5.901,5.894,5.8974,5.9063,5.9333,5.9345,5.9357,5.942,5.9444,5.9464,0,0,0,0,0,0,5.825,5.834,5.8329,5.849,5.8565,5.8649,5.8732,5.8721,5.8813,5.8804,5.8827,5.8849,5.9003,5.9048,5.8968,5.9236,5.9165,5.9185,5.9201,5.9224,5.9242,5.9229,5.8913,0,0,0,0,0,5.8279,5.8378,5.8453,5.8589,5.8626,5.8673,5.8732,5.8742,5.8821,5.8853,5.8909,5.8989,5.9093,5.916,5.9259,5.9434,5.9457,5.9512,5.953,5.9544,5.9562,5.9663,5.969,5.9405,5.9405,5.9404,0,0,5.8342,5.8404,5.8465,5.86,5.8659,5.8765,5.87,5.8813,5.8893,5.887,5.9017,5.9062,5.9153,5.9317,5.9393,5.9359,5.9646,5.956,5.9571,5.9581,5.9679,5.9706,5.9729,5.9413,5.9412,5.941,0,0,5.8511,5.8566,5.8687,5.8748,5.8838,5.8868,5.8898,5.8985,5.9014,5.9161,5.9148,5.9244,5.942,5.9487,5.9544,5.9743,5.9729,5.9775,5.987,5.9968,5.999,6.0011,6.0086,6.0112,5.9791,5.9792,5.9792,0,5.8578,5.8734,5.8751,5.8867,5.8929,5.8913,5.9039,5.9097,5.9216,5.9261,5.9221,5.9445,5.9505,5.9688,5.9736,5.9781,5.9819,5.9765,5.9985,6.0006,6.0025,6.0097,6.0125,5.9797,5.9796,5.9796,5.9795,0,5.8815,5.8924,5.9011,5.9126,5.9197,5.9317,5.9356,5.9427,5.9431,5.9468,5.9621,5.9692,5.9807,5.9851,5.9855,6.0036,6.0013,5.9979,5.9909,6.0057,6.0125,6.0153,5.9804,5.9802,5.9801,5.98,0,0,5.902,5.9144,5.9177,5.9231,5.933,5.9416,5.9538,5.9649,5.9712,5.9795,5.9901,6.0052,6.0023,6.0088,6.01,6.0186,6.0345,6.0143,6.0145,6.0181,6.0554,6.0581,6.0612,6.0335,6.0341,6.0345,6.0547,0,5.9201,5.9413,5.9434,5.9626,5.973,5.9718,5.9824,5.9899,5.9937,6.0033,6.0075,6.0184,6.0134,6.0174,6.0258,6.0307,6.0421,6.0293,6.0438,6.0443,6.0418,6.0647,6.0675,6.0862,6.0574,6.0578,6.0581,0,5.9441,5.9531,5.9733,5.9823,5.9867,5.9962,6.0069,6.0159,6.0246,6.0267,6.0342,6.0344,6.0473,6.0397,6.0578,6.0491,6.0551,6.0585,6.0593,6.061,6.0523,6.0673,6.0922,6.0952,6.0623,6.0619,6.0616,0,5.9576,5.9748,5.9892,5.9938,6.0045,6.0113,6.0161,6.0242,6.031,6.0404,6.0449,6.0556,6.0617,6.0702,6.0735,6.0675,6.0917,6.0841,6.0942,6.0942,6.0995,6.0992,6.1261,6.1029,6.1028,6.1028,6.1027,0,5.9778,5.9903,5.9955,6.0044,6.0186,6.021,6.035,6.0395,6.0468,6.0569,6.0565,6.066,6.0696,6.0798,6.0825,6.0974,6.1,6.1024,6.103,6.1026,6.1024,6.1068,6.1058,6.1035,6.1034,6.1032,6.1031,0,5.9953,5.9992,6.0149,6.0238,6.0264,6.0365,6.0442,6.0531,6.0567,6.0695,6.0727,6.0786,6.0906,6.0947,6.1092,6.1111,6.1285,6.1279,6.1256,6.1258,6.1358,6.1349,6.1668,6.1712,6.1448,6.145,6.1452,0,6.0081,6.0177,6.0277,6.0344,6.0394,6.0501,6.057,6.0599,6.0672,6.078,6.0856,6.0975,6.1072,6.1265,6.1323,6.1436,6.1434,6.1538,6.1451,6.1446,6.1441,6.1436,6.1448,6.1555,6.1558,6.156,6.1562,0,6.0306,6.0321,6.042,6.0528,6.061,6.0696,6.0779,6.0834,6.0876,6.0959,6.1081,6.1156,6.1306,6.1426,6.1542,6.1594,6.1588,6.1589,6.1619,6.1617,6.1602,6.1615,6.1304,6.1582,6.158,6.1578,6.1577,6.1576,6.0464,6.0551,6.0636,6.0748,6.0813,6.0892,6.0981,6.1029,6.1131,6.1255,6.1266,6.1399,6.1488,6.1642,6.1701,6.1808,6.1779,6.1821,6.1833,6.1844,6.1853,6.1582,6.1828,6.1828,6.1827,6.1827,6.1827,0,6.0693,6.0747,6.0849,6.0966,6.1056,6.1039,6.1131,6.1208,6.1325,6.1406,6.1502,6.1646,6.1763,6.1831,6.1949,6.2022,6.2022,6.2053,6.2049,6.2062,6.187,6.1834,6.2051,6.2051,6.2051,6.2051,6.2051,6.205,6.0822,6.0969,6.0995,6.1177,6.1231,6.1361,6.1416,6.149,6.1556,6.1716,6.1813,6.1856,6.1934,6.2058,6.2166,6.2184,6.2229,6.2263,6.2278,6.2098,6.2075,6.2053,6.202,6.2272,6.2272,6.2462,6.2464,6.2465]},{"header":{"parameterUnit":"m.s-1","parameterCategory":1,"la1":30.2991,"la2":30.254,"lo1":-89.0895,"lo2":-89.0444,"dy":0.0017,"dx":0.0017,"nx":28,"ny":28,"refTime":"2024-02-04T03:00:00:Z","depth":0,"parameterNumber":3,"parameterNumberName":"V-component_of_WINDS"},"data":[0,0,0,0,0,0,0,0,0,0,0,0,0,0,0,0,0,0,0,0,0,0,0,0,0,0,0,0,0,0,0,0,0,0,0,0,0,0,0,0,0,0,0,0,0,0,0,0,0,0,0,0,0,0,0,0,0,0,0.1951,0.1951,0,0.1944,0.1944,0.1944,0.19,0.1898,0.1897,0.1896,0.1892,0.1893,0.1894,0,0,0,0,0,0,0,0,0,0,0,0,0,0.1926,0.1926,0.1951,0.1951,0.195,0.1944,0.1944,0.1944,0.19,0.1898,0.1897,0.1896,0.1892,0.1893,0.1894,0,0,0,0,0,0,0,0,0,0,0,0,0,0.193,0.1927,0.1951,0.1928,0.1925,0.1944,0.1944,0.1944,0.19,0.1898,0.1897,0.1895,0.1891,0.1893,0.1894,0.1935,0,0,0.1898,0.1899,0,0,0,0,0,0,0,0,0.193,0.1931,0.1931,0.1929,0.1927,0.1921,0.1934,0.1941,0.19,0.191,0.1896,0.1894,0.1903,0.1903,0.1906,0.1935,0.1935,0.1898,0.1899,0.19,0.19,0,0,0,0,0,0,0,0.1929,0.1931,0.1948,0.1931,0.1929,0.1918,0.1917,0.1935,0.1916,0.1909,0.1906,0.1905,0.1902,0.1905,0.1906,0.1935,0.1898,0.19,0.19,0.1901,0.1996,0.1998,0,0,0,0,0,0,0.1932,0.1931,0.1948,0.1948,0.1924,0.192,0.1918,0.1925,0.1916,0.1913,0.1907,0.1903,0.1903,0.1904,0.1905,0.1951,0.19,0.1901,0.1902,0.1995,0.1997,0.1998,0,0,0,0,0,0,0.1932,0.1934,0.1949,0.1939,0.194,0.1922,0.1929,0.1925,0.1928,0.1914,0.191,0.1913,0.1902,0.1903,0.1928,0.1951,0.1902,0.1903,0.1992,0.1995,0.1998,0.2045,0,0,0,0,0,0,0.1931,0.1934,0.1949,0.1939,0.194,0.1971,0.1931,0.1926,0.193,0.1926,0.1919,0.1916,0.1901,0.1926,0.1929,0.1952,0.1904,0.199,0.1994,0.1997,0.2042,0.2049,0.2056,0,0,0,0,0,0.193,0.1964,0.195,0.1953,0.1959,0.1972,0.1973,0.1954,0.1933,0.1948,0.1938,0.1917,0.1948,0.1929,0.1932,0.1955,0.1989,0.1993,0.1996,0.2038,0.2048,0.2056,0,0,0,0,0,0,0.1979,0.1962,0.1947,0.1978,0.1977,0.1965,0.1983,0.1965,0.197,0.1965,0.1942,0.1941,0.1969,0.1965,0.1944,0.1994,0.1965,0.1969,0.1995,0.2004,0.2011,0.2011,0.1905,0,0,0,0,0,0.1993,0.2004,0.199,0.2019,0.2019,0.2001,0.2007,0.1992,0.199,0.1989,0.1982,0.1981,0.199,0.1997,0.2006,0.2041,0.2038,0.2059,0.2066,0.2072,0.2076,0.2093,0.2101,0.2011,0.2011,0.2011,0,0,0.2022,0.2015,0.2024,0.2028,0.2025,0.2038,0.2001,0.2017,0.2026,0.1992,0.2013,0.2008,0.2006,0.2036,0.2049,0.2033,0.21,0.2077,0.2082,0.2082,0.2098,0.2106,0.2114,0.2014,0.2013,0.2013,0,0,0.2082,0.2078,0.2101,0.2098,0.2094,0.2082,0.2088,0.2078,0.2073,0.2094,0.2069,0.208,0.2097,0.2096,0.2098,0.2156,0.2136,0.216,0.2196,0.2213,0.222,0.2226,0.2246,0.2253,0.2164,0.2164,0.2164,0,0.2119,0.2137,0.2115,0.2132,0.2134,0.2103,0.2125,0.2125,0.2124,0.2126,0.2109,0.2129,0.2126,0.2154,0.2168,0.2171,0.2176,0.216,0.2221,0.2227,0.2232,0.2251,0.2258,0.2167,0.2167,0.2166,0.2166,0,0.2182,0.2195,0.2214,0.2212,0.2217,0.2237,0.2218,0.2226,0.221,0.22,0.2222,0.2217,0.2222,0.2228,0.2214,0.2254,0.2245,0.2225,0.2194,0.2244,0.2261,0.2268,0.2171,0.217,0.2169,0.2168,0,0,0.2271,0.2257,0.2264,0.2262,0.2255,0.2265,0.2283,0.2288,0.2294,0.2295,0.2309,0.2324,0.2305,0.2307,0.2292,0.2307,0.2352,0.2285,0.2285,0.2297,0.2394,0.2408,0.2417,0.2339,0.234,0.2341,0.2394,0,0.2327,0.2356,0.2337,0.237,0.238,0.2351,0.2366,0.2364,0.2355,0.2363,0.2354,0.2364,0.2339,0.234,0.2353,0.2344,0.2371,0.234,0.2351,0.2352,0.2351,0.2425,0.244,0.249,0.24,0.2402,0.2402,0,0.2396,0.2398,0.2431,0.242,0.2424,0.2439,0.2441,0.2449,0.2446,0.2438,0.244,0.2421,0.2438,0.2409,0.2432,0.2411,0.2415,0.2411,0.2413,0.2412,0.2379,0.2425,0.2506,0.2512,0.2413,0.2412,0.2411,0,0.2456,0.2467,0.2488,0.2488,0.2476,0.2487,0.2483,0.2477,0.2481,0.2483,0.2485,0.249,0.2492,0.2496,0.248,0.246,0.2504,0.2474,0.2498,0.2498,0.2507,0.2506,0.2588,0.2512,0.2512,0.2512,0.2512,0,0.2519,0.254,0.2514,0.2527,0.2549,0.2527,0.2551,0.2543,0.2539,0.255,0.2525,0.2536,0.2514,0.2522,0.251,0.253,0.2531,0.2525,0.2521,0.2527,0.2527,0.2528,0.2523,0.2514,0.2514,0.2513,0.2513,0,0.2589,0.2573,0.2593,0.258,0.2577,0.2595,0.2584,0.2595,0.2584,0.2598,0.26,0.2584,0.2592,0.2576,0.2583,0.2575,0.2602,0.2594,0.2603,0.2599,0.2623,0.2621,0.2706,0.2716,0.2636,0.2637,0.2638,0,0.263,0.2645,0.2633,0.2638,0.2635,0.2644,0.2647,0.2626,0.2631,0.2627,0.2639,0.2645,0.2649,0.2664,0.2653,0.2658,0.2648,0.2678,0.2649,0.2653,0.2647,0.2645,0.2646,0.2684,0.2685,0.2685,0.2686,0,0.2703,0.2694,0.2699,0.2701,0.2705,0.2706,0.2705,0.2711,0.2689,0.2695,0.2703,0.2706,0.2712,0.2719,0.2721,0.2717,0.2698,0.2695,0.2701,0.2705,0.2709,0.2706,0.2617,0.2693,0.2693,0.2692,0.2692,0.2691,0.2758,0.277,0.2763,0.2769,0.2766,0.2766,0.2775,0.2765,0.2771,0.2774,0.2762,0.2772,0.2767,0.2768,0.2766,0.2774,0.2761,0.2769,0.2771,0.2773,0.2776,0.2709,0.2775,0.2774,0.2774,0.2774,0.2774,0,0.2829,0.2823,0.2829,0.2827,0.2832,0.2813,0.2811,0.2817,0.2826,0.2823,0.2827,0.2835,0.2841,0.283,0.2834,0.2843,0.2834,0.2844,0.2843,0.2842,0.2788,0.2782,0.2851,0.2851,0.2851,0.2851,0.2851,0.2851,0.2866,0.2883,0.2874,0.289,0.2884,0.2893,0.2893,0.2892,0.289,0.29,0.2904,0.2897,0.2891,0.2894,0.2898,0.2895,0.2897,0.291,0.2904,0.2854,0.2846,0.2839,0.2833,0.2911,0.2911,0.2956,0.2957,0.2957]}]]